Regional Weather Roundup
Issued by NWS

Home | Current Version | Previous Version | Text Only | Print | Product List | Glossary On
Versions: 1 2 3 4 5 6 7 8 9 10 11 12 13 14 15 16 17 18 19 20 21 22 23 24 25 26 27 28 29 30 31 32 33 34 35 36 37 38 39 40 41 42 43 44 45 46 47
000
ASUS45 KREV 040610
RWRNV
NEVADA REGIONAL WEATHER ROUNDUP
NATIONAL WEATHER SERVICE RENO NV
1100 PM PDT THU SEP 03 2015

NOTE: "FAIR" INDICATES FEW OR NO CLOUDS BELOW 12,000 FEET WITH NO
SIGNIFICANT WEATHER AND/OR OBSTRUCTIONS TO VISIBILITY.

NVZ001-003-004-040700-
WESTERN NEVADA

CITY           SKY/WX    TMP DP  RH WIND       PRES   REMARKS
RENO           MOCLDY    64  38  38 W20       29.88F
6HR MIN TEMP:  64; 6HR MAX TEMP:  77;

CARSON CITY    FAIR      63  36  36 SW10G20   29.90S
MINDEN         FAIR      57  37  47 SW3       29.92S
PYRAMID LAKE     N/A     66 N/A N/A SW12        N/A
FALLON         PTCLDY    65  31  28 NW8       29.86R
6HR MIN TEMP:  65; 6HR MAX TEMP:  84;

LOVELOCK       CLOUDY    67  28  23 NW9       29.85R
6HR MIN TEMP:  67; 6HR MAX TEMP:  81;

HAWTHORNE      CLEAR     70  39  32 NW12      29.85R
$$

NVZ002-CAZ072-073-040700-
NORTHERN AND CENTRAL SIERRA

CITY           SKY/WX    TMP DP  RH WIND       PRES   REMARKS
S. LAKE TAHOE  CLEAR     50  39  66 S5        30.00S
6HR MIN TEMP:  50; 6HR MAX TEMP:  66;

TRUCKEE        PTCLDY    46  36  66 CALM      29.99S
SQUAW VLY 8000   N/A     43  37  81 S6          N/A
SUSANVILLE     CLEAR     55  27  33 W8        29.91S
BLUE CANYON    CLEAR     53  40  61 NE3       29.98S
MAMMOTH LAKES  FAIR      52  36  54 E6        30.02R
BRIDGEPORT     FAIR      48  30  49 CALM      29.99S
$$

NVZ030-031-036-040700-
NORTHERN NEVADA

CITY           SKY/WX    TMP DP  RH WIND       PRES   REMARKS
ELKO           PTCLDY    63  36  36 NE5       29.85R
6HR MIN TEMP:  62; 6HR MAX TEMP:  81;

WINNEMUCCA     CLOUDY    61  37  41 NW8       29.86R
6HR MIN TEMP:  61; 6HR MAX TEMP:  75; 6HR PCP: TRACE;

WENDOVER       PTCLDY    70  36  28 W7G21     29.78R
$$

NVZ035-037-040700-
CENTRAL NEVADA

CITY           SKY/WX    TMP DP  RH WIND       PRES   REMARKS
ELY            CLEAR     58  23  26 S16       29.94S
6HR MIN TEMP:  58; 6HR MAX TEMP:  78;

EUREKA           N/A     63  21  20 SW6       29.89S
6HR MIN TEMP:  52; 6HR MAX TEMP:  83;

$$

NVZ013-014-040700-
SOUTH CENTRAL NEVADA

CITY           SKY/WX    TMP DP  RH WIND       PRES   REMARKS
TONOPAH        CLEAR     67  15  13 S8G25     29.90R
6HR MIN TEMP:  65; 6HR MAX TEMP:  83;

$$

NVZ017-020-022-040700-
SOUTHERN NEVADA

CITY           SKY/WX    TMP DP  RH WIND       PRES   REMARKS
LAS VEGAS      CLEAR     88  27  11 S12       29.71S
6HR MIN TEMP:  88; 6HR MAX TEMP:  98;

N. LAS VEGAS   CLEAR     87  30  13 S13       29.73S
6HR MIN TEMP:  86; 6HR MAX TEMP:  97;

NELLIS AFB     CLEAR     88  29  12 S14       29.72R
6HR MIN TEMP:  87; 6HR MAX TEMP:  98;

HENDERSON      CLEAR     85  31  14 S17       29.78
MERCURY        CLEAR     74  27  17 SW6       29.81R
6HR MIN TEMP:  74; 6HR MAX TEMP:  91;

$$


USA.gov is the U.S. government's official web portal to all federal, state and local government web resources and services.